Location: Bittkow
(50.3000°N, 19.0000°E)
Time: 13:04:54
(UTC+00:00)

deb Chang Zheng 4 - Pass Details

Date: 19 September 2020
Orbit: 602 x 626 km, 98.6° (Epoch: 22 October)

Event Time Altitude Azimuth Distance (km) Brightness Sun altitude
Rises 03:11:26 0° 17° (NNE) 2,905 7.5 -12.5°
Reaches altitude 10° 03:13:39 10° 20° (NNE) 1,990 6.7 -12.2°
Maximum altitude 03:17:57 65° 103° (ESE) 677 4.0 -11.5°
Drops below altitude 10° 03:22:11 10° 186° (S) 1,959 5.9 -10.9°
Sets 03:24:21 0° 189° (S) 2,855 6.7 -10.6°
